User: anonymous   Login
Location: Shades State Park
(39.9310°N, 87.0690°W)
Time: 18:04:59
(UTC-04:00)
Language:

H-2A R/B - Orbit

View from above orbital plane
View from above orbital plane
View from above satellite
View from above satellite

Ground track
Ground track

The orbit data is extracted from the following two-line orbital elements,

1 27601U 02056E   16179.17762203  .00000037  00000-0  29237-4 0  9998
2 27601  98.4180 252.3955 0070961 267.3805 144.7503 14.31719703707018
Epoch (UTC): 27 June 2016 04:15:46
Eccentricity: 0.0070961
inclination: 98.4180°
perigee height: 735 km
apogee height: 837 km
right ascension of ascending node: 252.3955°
argument of perigee: 267.3805°
revolutions per day: 14.31719703
mean anomaly at epoch: 144.7503°
orbit number at epoch: 70701

The dashed part of the orbit path shows where the satellite is in the earth's shadow,  

DLR